Regional Weather Roundup
Issued by NWS

Home | Current Version | Previous Version | Text Only | Print | Product List | Glossary Off
Versions: 1 2 3 4 5 6 7 8 9 10 11 12 13 14 15 16 17 18 19 20 21 22 23 24 25 26 27 28 29 30 31 32 33 34 35 36 37 38 39 40 41 42 43 44 45 46 47 48 49 50

833
ASUS45 KCYS 211610
RWRWY

WYOMING REGIONAL WEATHER ROUNDUP
NATIONAL WEATHER SERVICE CHEYENNE WY
900 AM MST SAT JAN 21 2017

NOTE:  "FAIR" INDICATES FEW OR NO CLOUDS BELOW 12,000 FEET
WITH NO SIGNIFICANT WEATHER AND/OR OBSTRUCTIONS TO VISIBILITY.

WYZ001-211700-
YELLOWSTONE NATIONAL PARK

CITY           SKY/WX    TMP DP  RH WIND       PRES   REMARKS
LK YELLOWSTONE   N/A     10   9  95 CALM      29.38R
W YELLOWSTONE  NOT AVBL

$$
WYZ002>013-054>058-071-098>099-211700-
NORTHERN WYOMING

CITY           SKY/WX    TMP DP  RH WIND       PRES   REMARKS
JACKSON        CLOUDY    16  12  86 CALM      29.39R
CODY           CLOUDY    20  10  65 CALM      29.37R
GREYBULL       FOG        7   4  87 NE3       29.43R VSB 1/4
WORLAND        CLOUDY     3   2  95 CALM      29.41R FOG
SHERIDAN       FAIR      18  13  80 CALM      29.37R
BUFFALO        FAIR      28  17  63 W7        29.36R WCI  21
GILLETTE       FAIR      23  21  92 CALM      29.37R
HULETT         FAIR      27  23  86 SW5       29.38R WCI  21
NEWCASTLE      FAIR      25  21  86 CALM      29.38S

$$
WYZ014>020-022>026-101>103-211700-
CENTRAL WYOMING

CITY           SKY/WX    TMP DP  RH WIND       PRES   REMARKS
BIG PINEY      CLOUDY     6   4  91 NW5       29.37R WCI  -3
PINEDALE       FAIR       5   3  92 NW6       29.38R WCI  -6
DUBOIS         NOT AVBL
LANDER         PTSUNNY   14  13  95 SE3       29.37R FOG
RIVERTON       CLOUDY   N/A N/A N/A CALM      29.39R HAZE
CASPER         FAIR      20  16  84 NW9       29.37R WCI   9
DOUGLAS        FAIR      22  18  85 N3        29.39R

$$
WYZ021-027>030-104>119-211700-
SOUTHERN WYOMING

CITY           SKY/WX    TMP DP  RH WIND       PRES   REMARKS
EVANSTON       SNOW      17  13  84 W6        29.35R VSB 1/2 WCI   9
ROCK SPRINGS   FAIR      13  10  88 NE9       29.34R WCI   1
RAWLINS        FAIR      14   9  80 NW9       29.36R WCI   2
LARAMIE        FAIR       7   2  80 SW3       29.35R
CHEYENNE       FAIR      25  15  66 W6        29.37R WCI  18
TORRINGTON     FAIR      23  20  88 CALM      29.40R

$$




USA.gov is the U.S. government's official web portal to all federal, state and local government web resources and services.